x

Buoy I01 - Eastern Maine Shelf (44034) Wave Buoy

11:04 - Thu 21st Sep 2017 All times are EDT. -4 hours from GMT.

  • Sig Wave height 6.9ft
  • Peak Period 11s
  • Wind
    20mph, 25mph gusts
  • Sea Temp 57°f
  • Aire Temp 58°f
  • Sea Pressure 1018.8mb
  • Buoy I01 - Eastern Maine Shelf
  • Buoy I01 - Eastern Maine Shelf

More Historic Weather Station data

Upgrade to MSW Pro to gain access to the past 30 days of data for over 8000 Wavebouys and Weather Stations around the globe.

Join

Comparision Forecast

View Surf forecast
   
jue 09/21 11:04 7ft 11s 20 25 mph 1018.8mb 57f 58f
10:04 6ft 11s 18 20 mph 1018.8mb 57f 58f
9:04 6ft 11s 20 22 mph 1018.3mb 56f 58f
8:04 7ft 11s 18 22 mph 1018.3mb 54f 58f
7:04 7ft 11s 18 20 mph 1017.6mb 54f 59f
6:04 8ft 11s 20 25 mph 1017.6mb 54f 60f
5:04 7.5ft 11s 20 22 mph 1017.6mb 54f 60f
4:04 8.5ft 11s 22 25 mph 1016.9mb 54f 60f
3:04 7.5ft 11s 20 25 mph 1017.2mb 54f 61f
2:04 6.5ft 11s 20 25 mph 1017.1mb 54f 61f
1:04 8ft 11s 18 20 mph 1016.9mb 55f 60f
12:04 7.5ft 11s 18 20 mph 1017.1mb 55f 59f
11:04 8ft 11s 13 18 mph 1017.8mb 54f 58f
10:04  -   -  18 20 mph 1017.1mb 53f 58f
9:04 7ft 11s 20 25 mph 1016.8mb 53f 58f
8:04  -   -  20 25 mph 1016.1mb 53f 59f
7:04 5ft 6s 18 22 mph 1015.7mb 53f 59f
6:04  -   -  18 22 mph 1015mb 54f 59f
5:04 10ft 11s 18 22 mph 1014.3mb 54f 57f
4:04 7.5ft 11s 18 18 mph 1014.2mb 54f 58f
3:04  -   -  18 22 mph 1013.5mb 54f 59f
2:04  -   -  18 22 mph 1013.8mb 54f 60f
1:04  -   -  18 20 mph 1013.5mb 54f 60f
12:04  -   -  13 18 mph 1013.2mb 54f 60f
mié 09/20 11:04  -   -  13 16 mph 1013.2mb 54f 60f
10:04  -   -  11 13 mph 1013mb 54f 60f
9:04  -   -  11 16 mph 1012.7mb 54f 59f
8:04 6.5ft 11s 11 13 mph 1013mb 54f 58f
7:04 7ft 11s 11 13 mph 1013.1mb 54f 57f
6:04 7.5ft 11s 11 13 mph 1013mb 54f 58f
5:04 7ft 11s 9 11 mph 1012.7mb 54f 57f
4:04 7.5ft 11s 11 13 mph 1012.6mb 54f 58f
3:04 7.5ft 11s 13 16 mph 1012.8mb 54f 59f
2:04 6ft 11s 16 18 mph 1013.2mb 54f 60f
1:04 6.5ft 11s 16 18 mph 1013.6mb 54f 59f
12:04 6ft 11s 11 13 mph 1014.2mb 54f 58f
10:04 7.5ft 11s 13 16 mph 1014.2mb 54f 58f
9:04  -   -  13 16 mph 1014.8mb 54f 59f
8:04 5.5ft 11s 13 16 mph 1015mb 54f 59f
7:04 6.5ft 8s 13 16 mph 1015.4mb 54f 58f
6:04 1.3ft 3s 13 16 mph 1015.5mb 54f 58f
5:04 2.5ft 5s 13 16 mph 1015.5mb 54f 58f
4:04 7.5ft 11s 13 16 mph 1015.5mb 54f 57f
3:04  -   -  11 16 mph 1015.7mb 54f 57f
2:04  -   -  11 13 mph 1016.3mb 54f 56f
1:04  -   -  11 13 mph 1016.8mb 54f 57f
12:04  -   -  11 13 mph 1017mb 54f 57f
mar 09/19 11:04  -   -  11 13 mph 1017.6mb 54f 57f
10:04  -   -  13 16 mph 1018mb 54f 58f
9:04  -   -  13 16 mph 1018.3mb 54f 57f
8:04  -   -  11 16 mph 1018.6mb 54f 56f
7:04  -   -  11 13 mph 1018.6mb 54f 57f
6:04  -   -  13 16 mph 1018.6mb 54f 57f
5:04  -   -  13 16 mph 1019mb 54f 56f
4:04 6ft 11s 13 16 mph 1019.2mb 54f 56f
3:04 6ft 11s 11 13 mph 1019.6mb 54f 56f
1:04  -   -  11 13 mph 1020.5mb 54f 56f
12:04 1.3ft 3s 11 13 mph 1021.2mb 54f 56f
11:04 1.3ft 3s 11 13 mph 1021.5mb 54f 56f
10:04 1.3ft 3s 11 11 mph 1021.5mb 54f 56f
9:04  -   -  9 11 mph 1021.7mb 54f 56f
8:04 3.5ft 8s 9 11 mph 1021.6mb 54f 56f
7:04  -   -  11 13 mph 1021.7mb 54f 56f
6:04  -   -  11 11 mph 1021.6mb 54f 56f
5:04  -   -  9 11 mph 1022mb 54f 56f
4:04  -   -  11 13 mph 1022mb 54f 56f
3:04 6ft 16s 11 13 mph 1022mb 54f 55f
2:04 5ft 11s 9 11 mph 1022.4mb 55f 55f
1:04 4.5ft 11s 9 9 mph 1022.6mb 55f 56f
12:04 4ft 11s 9 11 mph 1022.6mb 55f 56f
lun 09/18 11:04 4.5ft 16s 7 7 mph 1023.2mb 55f 56f
10:04 5ft 16s 7 9 mph 1023.2mb 55f 56f
9:04 5ft 16s 7 9 mph 1023mb 55f 56f
8:04 5ft 16s 9 9 mph 1023mb 55f 56f
7:04 6ft 16s 9 11 mph 1022.8mb 56f 56f
6:04  -   -  7 7 mph 1022.8mb 56f 56f
5:04 5ft 11s 7 7 mph 1023mb 55f 56f
4:04 6ft 16s 7 7 mph 1023mb 55f 56f
3:04  -   -  9 9 mph 1023.2mb 55f 57f
2:04 5ft 11s 7 7 mph 1022.8mb 55f 57f
1:04 5ft 16s 7 7 mph 1022.6mb 55f 56f
12:04 5ft 11s 4 4 mph 1022.6mb 55f 57f
11:04 4ft 16s 4 4 mph 1022.8mb 55f 56f
10:04 4.5ft 11s 2 2 mph 1023.1mb 55f 56f
9:04  -   -  7 7 mph 1023.1mb 54f 56f
8:04 5ft 16s 7 9 mph 1022.9mb 54f 56f
7:04 4.5ft 16s 7 7 mph 1022.3mb 55f 56f
6:04 4ft 11s 7 7 mph 1021.8mb 55f 56f
5:04 4.5ft 16s 7 9 mph 1021.7mb 55f 56f